Regional Weather Roundup
Issued by NWS

Home | Current Version | Previous Version | Graphics & Text | Print | Product List | Glossary Off
Versions: 1 2 3 4 5 6 7 8 9 10 11 12 13 14 15 16 17 18 19 20 21 22 23 24 25 26 27 28 29 30 31 32 33 34 35 36 37 38 39 40 41 42 43 44 45 46 47 48 49 50

000
ASUS43 KTOP 250459
RWRKS

WEATHER ROUNDUP FOR KANSAS
NATIONAL WEATHER SERVICE GOODLAND KS
1200 AM CDT FRI JUL 25 2014

NOTE:  "FAIR" INDICATES FEW OR NO CLOUDS BELOW 12,000 FEET WITH NO
SIGNIFICANT WEATHER AND/OR OBSTRUCTIONS TO VISIBILITY.

KSZ001>006-013>018-027>032-041>047-250600-
NORTHWEST KANSAS

CITY           SKY/WX    TMP DP  RH WIND       PRES   REMARKS
GOODLAND       MOCLDY    83  50  31 SW13      29.94R
HAYS           PTCLDY    64  64 100 S21G28    29.87F
HILL CITY      CLOUDY    85  69  58 S17G30    29.84F
RUSSELL        PTCLDY    83  71  67 S20G30    29.86F
$$

KSZ061>065-074>080-084>089-250600-
SOUTHWEST KANSAS

CITY           SKY/WX    TMP DP  RH WIND       PRES   REMARKS
DODGE CITY     PTCLDY    79  65  62 S12       29.95F
ELKHART          N/A     80  53  39 S14         N/A
GARDEN CITY    PTCLDY    80  61  52 S15       29.94S
GREAT BEND     PTCLDY    82  70  65 S21G28    29.89S
LIBERAL        PTCLDY    82  61  47 S17       30.00S
PRATT          PTCLDY    81  68  65 S18G25    29.96F
$$

KSZ066>073-081>083-090>101-250600-
SOUTHEAST KANSAS

CITY           SKY/WX    TMP DP  RH WIND       PRES   REMARKS
CHANUTE        CLEAR     75  66  73 SE7       30.00S
COFFEYVILLE    CLEAR     75  71  87 SE7       29.99F
HUTCHINSON     PTCLDY    80  69  69 SE9       29.94F
MEDICINE LODGE   N/A     82  72  71 S10G21    29.93F
NEWTON         PTCLDY    77  64  65 S13G18    29.98F
PARSONS        CLEAR     76  70  82 SE5       30.01S
WICHITA INTL   PTCLDY    79  70  74 S14       29.95F
WICHITA JABRA  CLEAR     79  71  76 S16       29.95F
WINFIELD       CLEAR     78  73  84 SE13      29.97F
$$

KSZ007>012-019>026-033>040-048>060-102>105-250600-
NORTHEAST KANSAS

CITY           SKY/WX    TMP DP  RH WIND       PRES   REMARKS
CONCORDIA      CLEAR     79  68  69 SE20G28   29.89S
EMPORIA        CLOUDY    74  66  76 SE12      29.97F
LAWRENCE       CLEAR     70  61  73 S7        29.96F
MANHATTAN      PTCLDY    79  67  66 SE8       29.93S
OLATHE IND     CLEAR     71  60  68 S12       29.97F
OLATHE EXE     CLEAR     71  59  65 S10       29.96F
SALINA         CLEAR     82  68  62 S17       29.90S
TOPEKA BILLARD CLEAR     77  58  51 SE13      29.95F
TOPEKA FORBES  PTCLDY    75  60  59 S13       29.96F
$$



USA.gov is the U.S. government's official web portal to all federal, state and local government web resources and services.